weather.gov     
National Weather Service

Terminal Aerodrome Forecast
NWS Homepage
This page is being discontinued on March 12, 2014.
The same data is available at this site. Please update your bookmarks.
Thank you, and we apologize for the inconvenience.
Please send an email to SR-SRH.Webmaster@noaa.gov with any concerns.


Current Version
Previous Version:    01  02  03  04  05  06  07  08  09  10  11  12  13  14  
[Printable]
314
FTUS41 KCAR 220700 AAA
TAFCAR
TAF AMD
KCAR 220757Z 2208/2306 14004KT P6SM BKN004
     FM221000 VRB03KT P6SM OVC008
     FM221100 20005KT 3SM -SHRA OVC008
     FM221300 21008KT 6SM -SHRA BKN015
     FM221500 23011KT P6SM BKN025
     FM221600 24013KT P6SM BKN050=


U.S. Dept. of Commerce
NOAA National Weather Service
1325 East West Highway
Silver Spring, MD 20910
E-mail: w-nws.webmaster@noaa.gov
Page last modified: May 16, 2007
NATIONAL WEATHER SERVICE: for Safety, for Work, for Fun - FOR LIFE